Location: Cudham
(51.3000°N, 0.0667°E)
Time: 19:53:53
(UTC+00:00)

KORONAS-FOTON - Pass Details

Date: 19 May 2025
Orbit: 447 x 464 km, 82.4° (Epoch: 21 June)

Event Time Altitude Azimuth Distance (km) Brightness Sun altitude
Exits shadow 23:23:51 56° 193° (SSW) 553 3.5 -18.4°
Maximum altitude 23:24:32 88° 280° (W) 465 3.4 -18.4°
Drops below altitude 10° 23:28:02 10° 10° (N) 1,605 7.4 -18.4°
Sets 23:30:07 0° 11° (N) 2,480 8.7 -18.5°
